Weather History for PAMR - May, 2014

Change the Weather History Date:

Monday, May 12, 2014

  Actual Average Record
Temperature  
Mean Temperature 47 °F -  
Max Temperature 55 °F 54 °F 64 °F (2005)
Min Temperature 39 °F 37 °F 34 °F (2000)
Degree Days  
Heating Degree Days 18    
Moisture  
Dew Point 39 °F    
Average Humidity 77    
Maximum Humidity 97    
Minimum Humidity 47    
Precipitation  
Precipitation 0.00 in - - ()
Sea Level Pressure  
Sea Level Pressure 30.31 in    
Wind  
Wind Speed 5 mph (WNW)    
Max Wind Speed 12 mph    
Max Gust Speed 20 mph    
Visibility 7 miles    
Events Fog    
Averages and records for this station are not official NWS values.
T = Trace of Precipitation, MM = Missing Value Source: NWS Daily Summary

Daily Weather History Graph

Daily Weather History Graph

Search for Another Location

Airport or City:

Trip Planner

Search our weather history database for the weather conditions in past years. The results will help you decide how hot, cold, wet, or windy it might be!

Date:

Astronomy

May. 12, 2014 Rise Set
Actual Time 5:19 AM AKDT 10:33 PM AKDT
Civil Twilight 4:12 AM AKDT 11:41 PM AKDT
Nautical Twilight 2:28 AM AKDT 1:23 AM AKDT
Astronomical Twilight Sun does not set Sun does not set
Moon 8:05 PM AKDT (5/12) 4:51 AM AKDT (5/12)
Length of Visible Light 19h 28m
Length of Day
17h 14m
Waxing Gibbous, 95% of the Moon is Illuminated
May 12
Waxing Gibbous
May 14
Full
May 21
Last Quarter
May 28
New
Jun 5
First Quarter

Hourly Weather History & Observations

Time (AKDT) Temp. Windchill Dew Point Humidity Pressure Visibility Wind Dir Wind Speed Gust Speed Precip Events Conditions
12:53 AM 55.0 °F - 35.1 °F 47% 30.25 in 10.0 mi SSW 11.5 mph 19.6 mph N/A   Clear
1:53 AM 50.0 °F - 36.0 °F 59% 30.28 in 10.0 mi Calm Calm - N/A   Clear
2:53 AM 48.9 °F - 34.0 °F 56% 30.29 in 10.0 mi Calm Calm - N/A   Clear
3:53 AM 44.1 °F 41.5 °F 37.9 °F 79% 30.30 in 10.0 mi WNW 4.6 mph - N/A   Clear
4:40 AM 42.8 °F 38.6 °F 39.2 °F 87% 30.30 in 10.0 mi West 6.9 mph - N/A   Mostly Cloudy
4:54 AM 42.1 °F 37.7 °F 39.0 °F 89% 30.31 in 9.0 mi West 6.9 mph - N/A Fog Overcast
5:28 AM 41.0 °F 37.1 °F 39.2 °F 93% 30.31 in 2.0 mi West 5.8 mph - N/A   Overcast
5:35 AM 41.0 °F 38.0 °F 39.2 °F 93% 30.31 in 0.5 mi WSW 4.6 mph - N/A Fog Fog
6:53 AM 39.9 °F - 37.9 °F 93% 30.33 in 0.5 mi Calm Calm - N/A Fog Fog
7:53 AM 39.9 °F - 39.0 °F 97% 30.34 in 0.5 mi Calm Calm - N/A Fog Fog
8:53 AM 42.1 °F - 39.0 °F 89% 30.34 in 0.5 mi Calm Calm - N/A Fog Fog
8:57 AM 42.8 °F - 39.2 °F 87% 30.33 in 2.0 mi Calm Calm - N/A Fog Fog
9:24 AM 42.8 °F 41.1 °F 37.4 °F 81% 30.34 in 2.0 mi Variable 3.5 mph - N/A Fog Fog
9:53 AM 43.0 °F 41.3 °F 37.9 °F 82% 30.35 in 2.0 mi NNW 3.5 mph - N/A Fog Fog
9:59 AM 44.6 °F 41.4 °F 39.2 °F 81% 30.34 in 9.0 mi NNW 5.8 mph - N/A Fog Fog
10:53 AM 44.1 °F 41.5 °F 39.0 °F 82% 30.35 in 6.0 mi NNW 4.6 mph - N/A Fog Fog
11:53 AM 46.0 °F 42.5 °F 39.0 °F 76% 30.35 in 10.0 mi WNW 6.9 mph - N/A   Scattered Clouds
12:53 PM 46.9 °F - 39.0 °F 74% 30.35 in 10.0 mi WNW 6.9 mph - N/A   Scattered Clouds
1:53 PM 48.9 °F - 39.9 °F 71% 30.34 in 10.0 mi West 8.1 mph - N/A   Scattered Clouds
2:53 PM 50.0 °F - 39.9 °F 68% 30.32 in 10.0 mi WNW 6.9 mph - N/A   Partly Cloudy
3:53 PM 50.0 °F - 39.9 °F 68% 30.32 in 10.0 mi West 8.1 mph - N/A   Clear
4:53 PM 51.1 °F - 39.9 °F 66% 30.30 in 10.0 mi West 6.9 mph - N/A   Clear
5:53 PM 50.0 °F - 41.0 °F 71% 30.30 in 10.0 mi NW 8.1 mph - N/A   Clear
6:53 PM 50.0 °F - 41.0 °F 71% 30.29 in 10.0 mi NW 4.6 mph - N/A   Clear
7:53 PM 50.0 °F - 41.0 °F 71% 30.28 in 10.0 mi NW 5.8 mph - N/A   Partly Cloudy
8:53 PM 50.0 °F - 41.0 °F 71% 30.28 in 10.0 mi Calm Calm - N/A   Clear
10:53 PM 50.0 °F - 39.0 °F 66% 30.29 in 10.0 mi Calm Calm - N/A   Clear
11:53 PM 46.9 °F - 39.9 °F 77% 30.30 in 10.0 mi Calm Calm - N/A   Partly Cloudy